Kalaeloa, HI

6:02 AM HST on October 17, 2017 (GMT -1000)
Kalaeloa (John Rodgers Field)

Weather History for PHJR - December, 2012

Change the Weather History Date:

Monday, December 24, 2012

  Actual Average (PHHI) Record (PHHI)
Temperature  
Mean Temperature 73 °F -  
Max Temperature 80 °F 74 °F 80 °F (2003)
Min Temperature 66 °F 61 °F 60 °F (1997)
Cooling Degree Days 8    
Growing Degree Days 23 (Base 50)    
Moisture  
Dew Point 62 °F    
Average Humidity 71    
Maximum Humidity 84    
Minimum Humidity 52    
Precipitation  
Precipitation 0.00 in - - ()
Sea Level Pressure  
Sea Level Pressure 30.01 in    
Wind  
Wind Speed 2 mph (ESE)    
Max Wind Speed 8 mph    
Max Gust Speed -    
Visibility 10 miles    
Events      
Averages and records for this station are not official NWS values.
T = Trace of Precipitation, MM = Missing Value Source: NWS Daily Summary

Daily Weather History Graph

Daily Weather History Graph

Search for Another Location

Airport or City:

Trip Planner

Search our weather history database for the weather conditions in past years. The results will help you decide how hot, cold, wet, or windy it might be!

Date:

Astronomy

Dec. 24, 2012 Rise Set
Actual Time 7:07 AM HST 5:57 PM HST
Civil Twilight 6:42 AM HST 6:21 PM HST
Nautical Twilight 6:15 AM HST 6:49 PM HST
Astronomical Twilight 5:47 AM HST 7:16 PM HST
Moon 3:25 PM HST (12/24) 4:04 AM HST (12/24)
Length of Visible Light 11h 38m
Length of Day
10h 50m
Waxing Gibbous, 89% of the Moon is Illuminated
Dec 24
Waxing Gibbous
Dec 28
Full
Jan 4
Last Quarter
Jan 11
New
Jan 18
First Quarter

Hourly Weather History & Observations

Time (HST) Temp. Heat Index Dew Point Humidity Pressure Visibility Wind Dir Wind Speed Gust Speed Precip Events Conditions
12:53 AM 68.0 °F - 59.0 °F 73% 30.02 in 10.0 mi Calm Calm - N/A   Clear
1:53 AM 66.9 °F - 59.0 °F 76% 30.01 in 10.0 mi Calm Calm - N/A   Clear
2:53 AM 66.9 °F - 59.0 °F 76% 29.99 in 10.0 mi Variable 3.5 mph - N/A   Clear
3:53 AM 68.0 °F - 57.0 °F 68% 29.97 in 10.0 mi Calm Calm - N/A   Clear
4:53 AM 66.9 °F - 57.9 °F 73% 29.97 in 10.0 mi East 3.5 mph - N/A   Clear
5:53 AM 68.0 °F - 55.9 °F 65% 29.98 in 10.0 mi NNE 4.6 mph - N/A   Clear
6:53 AM 68.0 °F - 55.0 °F 63% 30.00 in 10.0 mi Variable 3.5 mph - N/A   Clear
7:53 AM 68.0 °F - 55.9 °F 65% 30.02 in 10.0 mi ENE 3.5 mph - N/A   Partly Cloudy
8:53 AM 71.1 °F - 55.9 °F 59% 30.04 in 10.0 mi Variable 4.6 mph - N/A   Clear
9:53 AM 77.0 °F - 60.1 °F 56% 30.04 in 10.0 mi Variable 3.5 mph - N/A   Clear
10:53 AM 77.0 °F - 61.0 °F 58% 30.04 in 10.0 mi Variable 4.6 mph - N/A   Clear
11:53 AM 80.1 °F 81.1 °F 61.0 °F 52% 30.01 in 10.0 mi Variable 3.5 mph - N/A   Clear
12:53 PM 79.0 °F - 63.0 °F 58% 29.98 in 10.0 mi SE 8.1 mph - N/A   Clear
1:53 PM 78.1 °F - 64.9 °F 64% 29.96 in 10.0 mi SE 6.9 mph - N/A   Clear
2:53 PM 77.0 °F - 66.0 °F 69% 29.97 in 10.0 mi SSE 8.1 mph - N/A   Clear
3:53 PM 77.0 °F - 66.9 °F 71% 29.98 in 10.0 mi SE 4.6 mph - N/A   Clear
4:53 PM 75.9 °F - 68.0 °F 76% 30.00 in 10.0 mi Variable 4.6 mph - N/A   Partly Cloudy
5:53 PM 75.0 °F - 68.0 °F 79% 30.00 in 10.0 mi Calm Calm - N/A   Partly Cloudy
6:53 PM 75.0 °F - 68.0 °F 79% 30.04 in 10.0 mi Calm Calm - N/A   Partly Cloudy
7:53 PM 73.9 °F - 68.0 °F 82% 30.06 in 10.0 mi Calm Calm - N/A   Scattered Clouds
8:53 PM 73.0 °F - 68.0 °F 84% 30.07 in 7.0 mi Calm Calm - N/A   Partly Cloudy
9:53 PM 72.0 °F - 66.9 °F 84% 30.07 in 10.0 mi Calm Calm - N/A   Clear
10:53 PM 72.0 °F - 66.0 °F 81% 30.06 in 10.0 mi Calm Calm - N/A   Clear
11:53 PM 72.0 °F - 66.0 °F 81% 30.06 in 10.0 mi ENE 3.5 mph - N/A   Clear